Regional Weather Roundup
Issued by NWS

Home | Current Version | Previous Version | Graphics & Text | Print | Product List | Glossary On
Versions: 1 2 3 4 5 6 7 8 9 10 11 12 13 14 15 16 17 18 19 20 21 22 23 24 25 26 27 28 29 30 31 32 33 34 35 36 37 38 39 40 41 42 43 44 45 46 47 48 49 50
000
ASUS43 KTOP 252008
RWRKS

WEATHER ROUNDUP FOR KANSAS
NATIONAL WEATHER SERVICE GOODLAND KS
200 PM CST SAT FEB 25 2017

NOTE:  "FAIR" INDICATES FEW OR NO CLOUDS BELOW 12,000 FEET WITH NO
SIGNIFICANT WEATHER AND/OR OBSTRUCTIONS TO VISIBILITY.

KSZ001>006-013>018-027>032-041>047-252100-
NORTHWEST KANSAS

CITY           SKY/WX    TMP DP  RH WIND       PRES   REMARKS
GOODLAND       SUNNY     40   6  24 NW21      29.92F WCI  30
HAYS           SUNNY     45  19  35 SW21G26   30.00F
HILL CITY      MOSUNNY   45  19  35 SW13      29.97F
RUSSELL        CLOUDY    43  18  36 SW18      30.01F
$$

KSZ061>065-074>080-084>089-252100-
SOUTHWEST KANSAS

CITY           SKY/WX    TMP DP  RH WIND       PRES   REMARKS
DODGE CITY     SUNNY     44  13  28 SW17G23   30.01F
ELKHART          N/A     45  12  26 SW12        N/A
GARDEN CITY    SUNNY     45  16  31 SW16G24   29.96F
GREAT BEND     PTSUNNY   43  16  33 SW12G18   30.04
LIBERAL        SUNNY     45  19  36 SW16G26   30.00F
PRATT          SUNNY     41   7  24 SW12G17   30.06F
$$

KSZ066>073-081>083-090>101-252100-
SOUTHEAST KANSAS

CITY           SKY/WX    TMP DP  RH WIND       PRES   REMARKS
CHANUTE        SUNNY     44  11  26 VRB7      30.15F
COFFEYVILLE    SUNNY     45  12  26 VRB5      30.17F
HUTCHINSON     MOSUNNY   45  12  26 S14       30.08F
MEDICINE LODGE   N/A     42  10  27 S15       30.08F
NEWTON         SUNNY     41  12  30 SW13      30.10F
PARSONS        SUNNY     45  10  24 S6        30.16F
WICHITA INTL   MOSUNNY   42  14  32 SW16      30.11F
WICHITA JABRA  MOSUNNY   42  12  29 SW15G21   30.11F
WICHITA MCCONL SUNNY     42  12  29 SW8       30.11F
WINFIELD       SUNNY     43  15  32 VRB7      30.15F
$$

KSZ007>012-019>026-033>040-048>060-102>105-252100-
NORTHEAST KANSAS

CITY           SKY/WX    TMP DP  RH WIND       PRES   REMARKS
CONCORDIA      SUNNY     41  18  39 SW12      30.04F
EMPORIA        SUNNY     42   8  24 W8        30.11F
LAWRENCE       SUNNY     40  13  33 VRB6      30.14F
MANHATTAN      SUNNY     41  11  29 S8        30.10F
MARYSVILLE     PTSUNNY   36  18  48 SW12      30.08F WCI  27
OLATHE IND     SUNNY     39  12  33 VRB6      30.13F
OLATHE EXE     SUNNY     39  13  34 N3        30.12F
SALINA         SUNNY     46  10  23 SW12G21   30.08F
TOPEKA BILLARD SUNNY     41   9  26 W8        30.13F
TOPEKA FORBES  SUNNY     40  10  29 S5        30.12F
$$




USA.gov is the U.S. government's official web portal to all federal, state and local government web resources and services.